Location: Forest
(37.3641°N, 79.2902°W)
Time: 21:53:24
(UTC+00:00)

Explorer 11/Cluster Stage 4 - Pass Details

Date: 14 November 2024
Orbit: 464 x 1202 km, 28.8° (Epoch: 03 December)

Event Time Altitude Azimuth Distance (km) Brightness Sun altitude
Exits shadow 09:28:36 21° 154° (SSE) 1,359 8.0 -29.3°
Drops below altitude 10° 09:31:02 10° 120° (ESE) 1,851 9.2 -28.8°
Sets 09:33:28 0° 105° (ESE) 2,654 10.5 -28.3°
